User: anonymous   Login
Location: Pian di Sc�
(43.6333°N, 11.5500°E)
Time: 09:43:15
(UTC+00:00)
Language:

IDEFIX/ARIANE 42P - Orbit

View from above orbital plane
View from above orbital plane
View from above satellite
View from above satellite

Ground track
Ground track

The orbit data is extracted from the following two-line orbital elements,

1 27422U 02021B   20293.64417953 -.00000011 +00000-0 +11958-4 0  9998
2 27422 098.3671 249.6564 0011315 220.5141 139.5200 14.29296029961016
Epoch (UTC): 19 October 2020 15:27:37
Eccentricity: 0.0011315
inclination: 98.3671°
perigee height: 786 km
apogee height: 802 km
right ascension of ascending node: 249.6564°
argument of perigee: 220.5141°
revolutions per day: 14.29296029
mean anomaly at epoch: 139.5200°
orbit number at epoch: 96101

The dashed part of the orbit path shows where the satellite is in the earth's shadow,  

DLR